Weather History for Lamoni, IA

Change the Weather History Date:

Sunday, March 16, 2014

  Actual Average Record
Temperature  
Mean Temperature 29 °F 40 °F  
Max Temperature 36 °F 50 °F 81 °F (2012)
Min Temperature 21 °F 30 °F 16 °F (1970)
Degree Days  
Heating Degree Days 36 25  
Month to date heating degree days 549 452  
Since 1 July heating degree days 5823 5169  
Cooling Degree Days 0 0  
Month to date cooling degree days 0 0  
Year to date cooling degree days 0 0  
Moisture  
Dew Point 21 °F    
Average Humidity 68    
Maximum Humidity 92    
Minimum Humidity 44    
Precipitation  
Precipitation 0.04 in 0.08 in 0.81 in (1965)
Month to date precipitation 0.72 1.01  
Sea Level Pressure  
Sea Level Pressure 30.21 in    
Wind  
Wind Speed 13 mph (NE)    
Max Wind Speed 24 mph    
Max Gust Speed 33 mph    
Visibility 7 miles    
Events Snow    
T = Trace of Precipitation, MM = Missing Value Source: NWS Daily Summary

Daily Weather History Graph

Daily Weather History Graph

Search for Another Location

Airport:

Trip Planner

Search our weather history database for the weather conditions in past years. The results will help you decide how hot, cold, wet, or windy it might be!

Date:

Astronomy

Mar. 16, 2014 Rise Set
Actual Time 7:25 AM CDT 7:23 PM CDT
Civil Twilight 6:58 AM CDT 7:50 PM CDT
Nautical Twilight 6:26 AM CDT 8:22 PM CDT
Astronomical Twilight 5:54 AM CDT 8:54 PM CDT
Moon 7:42 PM CDT (3/16) 7:09 AM CDT (3/16)
Length of Visible Light 12h 52m
Length of Day
11h 57m
Full, 100% of the Moon is Illuminated
Mar 16
Full
Mar 16
Full
Mar 23
Last Quarter
Mar 30
New
Apr 7
First Quarter

Hourly Weather History & Observations

Time (CDT) Temp. Windchill Dew Point Humidity Pressure Visibility Wind Dir Wind Speed Gust Speed Precip Events Conditions
12:20 AM 30.9 °F 20.7 °F 28.9 °F 92% 30.13 in 1.2 mi NE 13.8 mph 24.2 mph 0.05 in Snow Light Snow
12:29 AM 30.9 °F 21.2 °F 28.9 °F 92% 30.13 in 3.0 mi NE 12.7 mph - 0.05 in Snow Light Snow
12:53 AM 32.0 °F 19.5 °F 27.0 °F 82% 30.16 in 9.0 mi NE 21.9 mph 27.6 mph 0.05 in   Overcast
1:33 AM 32.0 °F 19.2 °F 28.0 °F 85% 30.16 in 10.0 mi NE 23.0 mph 31.1 mph 0.00 in   Overcast
1:53 AM 32.0 °F 19.5 °F 28.0 °F 85% 30.17 in 10.0 mi NE 21.9 mph 28.8 mph 0.00 in   Overcast
2:30 AM 30.9 °F 19.4 °F 28.0 °F 89% 30.17 in 2.0 mi NE 17.3 mph 28.8 mph 0.01 in Snow Light Snow
2:44 AM 30.0 °F 18.7 °F 28.0 °F 92% 30.18 in 1.8 mi NE 16.1 mph 25.3 mph 0.01 in Snow Light Snow
2:53 AM 30.0 °F 19.5 °F 28.0 °F 92% 30.20 in 0.8 mi NE 13.8 mph - 0.02 in Snow Light Snow
3:10 AM 30.0 °F 18.3 °F 27.0 °F 88% 30.18 in 1.2 mi NE 17.3 mph 25.3 mph 0.01 in Snow Light Snow
3:24 AM 28.9 °F 15.1 °F 27.0 °F 92% 30.17 in 2.0 mi NE 23.0 mph 31.1 mph 0.01 in Snow Light Snow
3:43 AM 28.9 °F 16.9 °F 27.0 °F 92% 30.18 in 2.5 mi NE 17.3 mph 26.5 mph 0.02 in Snow Light Snow
3:53 AM 28.9 °F 16.5 °F 26.1 °F 89% 30.19 in 1.5 mi NNE 18.4 mph - 0.02 in Snow Light Snow
4:07 AM 28.9 °F 17.3 °F 26.1 °F 89% 30.18 in 2.0 mi NNE 16.1 mph - 0.00 in Snow Light Snow
4:17 AM 28.0 °F 15.7 °F 25.0 °F 88% 30.18 in 4.0 mi NNE 17.3 mph 24.2 mph 0.00 in Snow Light Snow
4:43 AM 28.0 °F 16.1 °F 24.1 °F 85% 30.18 in 7.0 mi NNE 16.1 mph 25.3 mph 0.00 in Snow Light Snow
4:53 AM 28.0 °F 16.1 °F 24.1 °F 85% 30.20 in 7.0 mi NNE 16.1 mph 24.2 mph 0.00 in Snow Light Snow
5:21 AM 27.0 °F 13.9 °F 23.0 °F 85% 30.18 in 2.5 mi NNE 18.4 mph 26.5 mph 0.00 in Snow Light Snow
5:47 AM 26.6 °F 14.3 °F 23.0 °F 86% 30.19 in 3.0 mi NNE 16.1 mph - 0.00 in Snow Light Snow
5:53 AM 26.1 °F 13.1 °F 23.0 °F 88% 30.22 in 4.0 mi NNE 17.3 mph - 0.00 in Snow Light Snow
6:03 AM 26.1 °F 13.6 °F 21.9 °F 84% 30.19 in 9.0 mi NNE 16.1 mph 25.3 mph 0.00 in   Overcast
6:53 AM 26.1 °F 12.7 °F 19.0 °F 75% 30.22 in 10.0 mi NNE 18.4 mph 25.3 mph 0.00 in   Overcast
7:19 AM 25.0 °F 10.9 °F 18.0 °F 75% 30.21 in 10.0 mi NNE 19.6 mph - N/A   Overcast
7:53 AM 25.0 °F 10.9 °F 17.1 °F 72% 30.25 in 10.0 mi NNE 19.6 mph 25.3 mph N/A   Mostly Cloudy
8:53 AM 26.1 °F 13.6 °F 18.0 °F 71% 30.28 in 10.0 mi NNE 16.1 mph 24.2 mph N/A   Overcast
9:53 AM 26.1 °F 12.7 °F 19.0 °F 75% 30.30 in 10.0 mi NNE 18.4 mph 24.2 mph N/A   Overcast
10:53 AM 26.1 °F 14.0 °F 19.0 °F 75% 30.33 in 10.0 mi NNE 15.0 mph - N/A   Overcast
11:53 AM 28.0 °F 16.1 °F 19.9 °F 72% 30.36 in 10.0 mi NE 16.1 mph 24.2 mph N/A   Overcast
12:53 PM 30.9 °F 20.7 °F 19.9 °F 64% 30.32 in 10.0 mi ENE 13.8 mph 18.4 mph N/A   Mostly Cloudy
1:07 PM 30.9 °F 20.2 °F 19.9 °F 64% 30.28 in 10.0 mi NE 15.0 mph 20.7 mph N/A   Scattered Clouds
1:53 PM 32.0 °F 20.5 °F 19.0 °F 59% 30.30 in 10.0 mi ENE 18.4 mph 24.2 mph N/A   Partly Cloudy
2:53 PM 34.0 °F 24.6 °F 19.0 °F 54% 30.25 in 10.0 mi ENE 13.8 mph 20.7 mph N/A   Partly Cloudy
3:53 PM 35.1 °F 26.4 °F 18.0 °F 50% 30.22 in 10.0 mi North 12.7 mph - N/A   Partly Cloudy
4:53 PM 35.1 °F 27.4 °F 16.0 °F 46% 30.21 in 10.0 mi NNE 10.4 mph - N/A   Clear
5:53 PM 34.0 °F 26.0 °F 15.1 °F 46% 30.20 in 10.0 mi NE 10.4 mph - N/A   Clear
6:53 PM 30.9 °F 23.5 °F 14.0 °F 50% 30.20 in 10.0 mi NNE 8.1 mph - N/A   Clear
7:53 PM 27.0 °F 19.5 °F 12.9 °F 56% 30.21 in 10.0 mi NNE 6.9 mph - N/A   Clear
8:53 PM 25.0 °F 17.1 °F 12.9 °F 60% 30.22 in 10.0 mi NNE 6.9 mph - N/A   Clear
9:53 PM 24.1 °F 17.0 °F 12.9 °F 62% 30.19 in 10.0 mi ENE 5.8 mph - N/A   Clear
10:53 PM 24.1 °F 18.2 °F 12.9 °F 62% 30.17 in 10.0 mi East 4.6 mph - N/A   Clear
11:53 PM 23.0 °F 14.7 °F 14.0 °F 68% 30.14 in 10.0 mi SE 6.9 mph - N/A   Clear